,,Stat5,,Stat1,,Stat2,,Stat3,,Stat4,,Wind1,,Wind1,
time,status,PA1M_AVG,status,PR1M_SUM,status,RH1M_AVG,status,SR1M_AVG,status,TA1M_AVG,status,W1dAve1m,status,W1sAve1m,
2002-04-13, 00:00:01,VALID,918.257,VALID,0,VALID,98.4591,VALID,-0.0339617,VALID,20.5106,VALID,140,VALID,0.553209,
2002-04-13, 00:01:00,VALID,918.257,VALID,0,VALID,98.4921,VALID,-0.0339617,VALID,20.5077,VALID,144,VALID,0.682771,
2002-04-13, 00:02:00,VALID,918.229,VALID,0,VALID,98.5163,VALID,-0.0509425,VALID,20.5139,VALID,151,VALID,0.82567,
2002-04-13, 00:03:00,VALID,918.208,VALID,0,VALID,98.501,VALID,-0.0169808,VALID,20.5042,VALID,141,VALID,0.689631,
2002-04-13, 00:04:00,VALID,918.191,VALID,0,VALID,98.4565,VALID,-0.0169808,VALID,20.4813,VALID,120,VALID,0.730469,
2002-04-13, 00:05:00,VALID,918.182,VALID,0,VALID,98.454,VALID,-0.0509425,VALID,20.4592,VALID,117,VALID,0.818244,
2002-04-13, 00:06:00,VALID,918.168,VALID,0,VALID,98.5061,VALID,-0.0339617,VALID,20.4261,VALID,119,VALID,0.450893,
2002-04-13, 00:07:00,VALID,918.137,VALID,0,VALID,98.5239,VALID,0,VALID,20.4162,VALID,120,VALID,0.493454,
2002-04-13, 00:08:00,VALID,918.108,VALID,0,VALID,98.4998,VALID,0.0169808,VALID,20.396,VALID,119,VALID,0.692325,
2002-04-13, 00:09:00,VALID,918.08,VALID,0,VALID,98.4959,VALID,0,VALID,20.3801,VALID,122,VALID,1.21425,
2002-04-13, 00:10:00,VALID,918.061,VALID,0,VALID,98.5557,VALID,0.0169808,VALID,20.3709,VALID,135,VALID,1.05849,
2002-04-13, 00:11:00,VALID,918.05,VALID,0,VALID,98.6206,VALID,0.0169808,VALID,20.3739,VALID,140,VALID,0.758042,
2002-04-13, 00:12:00,VALID,918.042,VALID,0,VALID,98.5633,VALID,0,VALID,20.3577,VALID,107,VALID,0.711397,
2002-04-13, 00:13:00,VALID,918.033,VALID,0,VALID,98.5379,VALID,0,VALID,20.3391,VALID,102,VALID,0.873522,
2002-04-13, 00:14:00,VALID,918.02,VALID,0,VALID,98.5646,VALID,0.0169808,VALID,20.3061,VALID,91,VALID,0.924862,
2002-04-13, 00:15:00,VALID,918.008,VALID,0,VALID,98.6511,VALID,0,VALID,20.3123,VALID,91,VALID,0.962831,
2002-04-13, 00:16:00,VALID,917.995,VALID,0,VALID,98.6193,VALID,-0.0169808,VALID,20.3123,VALID,92,VALID,0.923353,
2002-04-13, 00:17:00,VALID,917.971,VALID,0,VALID,98.6613,VALID,0,VALID,20.316,VALID,111,VALID,0.849494,
2002-04-13, 00:18:00,VALID,917.961,VALID,0,VALID,98.7388,VALID,0.0169808,VALID,20.3486,VALID,106,VALID,0.977941,
2002-04-13, 00:19:00,VALID,917.932,VALID,0,VALID,98.7108,VALID,0,VALID,20.3674,VALID,85,VALID,0.893581,
2002-04-13, 00:20:00,VALID,917.888,VALID,0,VALID,98.5951,VALID,0.0169808,VALID,20.3289,VALID,72,VALID,1.04435,
2002-04-13, 00:21:00,VALID,917.842,VALID,0,VALID,98.5481,VALID,0,VALID,20.2966,VALID,76,VALID,1.13329,
2002-04-13, 00:22:00,VALID,917.822,VALID,0,VALID,98.5468,VALID,0.0169808,VALID,20.2837,VALID,82,VALID,1.3693,
2002-04-13, 00:23:00,VALID,917.811,VALID,0,VALID,98.5265,VALID,0,VALID,20.2777,VALID,84,VALID,1.2585,
2002-04-13, 00:24:00,VALID,917.819,VALID,0,VALID,98.5137,VALID,0,VALID,20.2417,VALID,79,VALID,1.26769,
2002-04-13, 00:25:00,VALID,917.812,VALID,0,VALID,98.5201,VALID,0.0169808,VALID,20.2315,VALID,76,VALID,1.24029,
2002-04-13, 00:26:00,VALID,917.802,VALID,0,VALID,98.5366,VALID,0,VALID,20.2285,VALID,75,VALID,1.06962,
2002-04-13, 00:27:00,VALID,917.783,VALID,0,VALID,98.557,VALID,0,VALID,20.2387,VALID,84,VALID,1.05043,
2002-04-13, 00:28:00,VALID,917.763,VALID,0,VALID,98.6269,VALID,0.0169808,VALID,20.2584,VALID,89,VALID,1.23585,
2002-04-13, 00:29:00,VALID,917.739,VALID,0,VALID,98.5557,VALID,0,VALID,20.2651,VALID,89,VALID,0.98989,
2002-04-13, 00:30:00,VALID,917.721,VALID,0,VALID,98.5163,VALID,0,VALID,20.2385,VALID,82,VALID,0.882123,
2002-04-13, 00:31:00,VALID,917.68,VALID,0,VALID,98.5341,VALID,0.0169808,VALID,20.2387,VALID,81,VALID,0.994721,
2002-04-13, 00:32:00,VALID,917.674,VALID,0,VALID,98.5405,VALID,0,VALID,20.2285,VALID,76,VALID,0.954963,
2002-04-13, 00:33:00,VALID,917.666,VALID,0,VALID,98.5735,VALID,0,VALID,20.2323,VALID,77,VALID,0.956203,
2002-04-13, 00:34:00,VALID,917.673,VALID,0,VALID,98.6015,VALID,0.0169808,VALID,20.2586,VALID,77,VALID,0.890414,
2002-04-13, 00:35:00,VALID,917.675,VALID,0,VALID,98.5684,VALID,0.0509425,VALID,20.2576,VALID,79,VALID,0.797335,
2002-04-13, 00:36:00,VALID,917.686,VALID,0,VALID,98.5341,VALID,0,VALID,20.2514,VALID,78,VALID,0.590303,
2002-04-13, 00:37:00,VALID,917.68,VALID,0,VALID,98.59,VALID,-0.0509425,VALID,20.2621,VALID,81,VALID,0.648649,
2002-04-13, 00:38:00,VALID,917.699,VALID,0,VALID,98.6625,VALID,-0.101885,VALID,20.2979,VALID,94,VALID,0.382583,
2002-04-13, 00:39:00,VALID,917.718,VALID,0,VALID,98.6231,VALID,-0.0679233,VALID,20.3213,VALID,150,VALID,0.497633,
2002-04-13, 00:40:00,VALID,917.73,VALID,0,VALID,98.5951,VALID,-0.101885,VALID,20.3237,VALID,158,VALID,0.658995,
2002-04-13, 00:41:00,VALID,917.738,VALID,0,VALID,98.468,VALID,-0.101885,VALID,20.3078,VALID,175,VALID,1.04642,
2002-04-13, 00:42:00,VALID,917.752,VALID,0,VALID,98.4069,VALID,-0.0679233,VALID,20.2728,VALID,171,VALID,0.934972,
2002-04-13, 00:43:00,VALID,917.761,VALID,0,VALID,98.4158,VALID,-0.118866,VALID,20.237,VALID,156,VALID,0.832559,
2002-04-13, 00:44:00,VALID,917.756,VALID,0,VALID,98.4158,VALID,-0.101885,VALID,20.2308,VALID,162,VALID,0.766314,
2002-04-13, 00:45:00,VALID,917.754,VALID,0,VALID,98.3764,VALID,-0.101885,VALID,20.2084,VALID,167,VALID,1.04119,
2002-04-13, 00:46:00,VALID,917.734,VALID,0,VALID,98.3751,VALID,-0.118866,VALID,20.1858,VALID,166,VALID,0.689823,
2002-04-13, 00:47:00,VALID,917.688,VALID,0,VALID,98.4082,VALID,-0.101885,VALID,20.163,VALID,157,VALID,0.389706,
2002-04-13, 00:48:00,VALID,917.66,VALID,0,VALID,98.4286,VALID,-0.101885,VALID,20.1401,VALID,148,VALID,0.722426,
2002-04-13, 00:49:00,VALID,917.625,VALID,0,VALID,98.4845,VALID,-0.101885,VALID,20.1403,VALID,151,VALID,0.74261,
2002-04-13, 00:50:00,VALID,917.605,VALID,0,VALID,98.5265,VALID,-0.101885,VALID,20.15,VALID,149,VALID,0.475184,
2002-04-13, 00:51:00,VALID,917.581,VALID,0,VALID,98.5468,VALID,-0.101885,VALID,20.1438,VALID,147,VALID,0.23035,
2002-04-13, 00:52:00,VALID,917.561,VALID,0,VALID,98.5773,VALID,-0.0339617,VALID,20.1458,VALID,173,VALID,0.314823,
2002-04-13, 00:53:00,VALID,917.533,VALID,0,VALID,98.5939,VALID,-0.0339617,VALID,20.1687,VALID,228,VALID,0.516085,
2002-04-13, 00:54:00,VALID,917.52,VALID,0,VALID,98.6625,VALID,-0.0339617,VALID,20.1878,VALID,241,VALID,0.661535,
2002-04-13, 00:55:00,VALID,917.503,VALID,0,VALID,98.6854,VALID,-0.0169808,VALID,20.2102,VALID,258,VALID,0.323902,
2002-04-13, 00:56:00,VALID,917.494,VALID,0,VALID,98.6994,VALID,0,VALID,20.2266,VALID,258,VALID,0.492188,
2002-04-13, 00:57:00,VALID,917.489,VALID,0,VALID,98.7477,VALID,-0.0169808,VALID,20.2586,VALID,257,VALID,0.608428,
2002-04-13, 00:58:00,VALID,917.499,VALID,0,VALID,98.763,VALID,-0.0169808,VALID,20.2971,VALID,260,VALID,0.52766,
2002-04-13, 00:59:00,VALID,917.506,VALID,0,VALID,98.8139,VALID,0,VALID,20.3553,VALID,252,VALID,0.840763,
2002-04-13, 01:00:00,VALID,917.533,VALID,0,VALID,98.8367,VALID,-0.0169808,VALID,20.3978,VALID,250,VALID,0.412454,
2002-04-13, 01:01:00,VALID,917.541,VALID,0,VALID,98.8456,VALID,-0.0169808,VALID,20.4331,VALID,255,VALID,0.58636,
2002-04-13, 01:02:00,VALID,917.555,VALID,0,VALID,98.8469,VALID,-0.0169808,VALID,20.4425,VALID,244,VALID,0.809513,
2002-04-13, 01:03:00,VALID,917.547,VALID,0,VALID,98.8227,VALID,-0.0169808,VALID,20.4395,VALID,232,VALID,0.474432,
2002-04-13, 01:04:00,VALID,917.526,VALID,0,VALID,98.8278,VALID,-0.0169808,VALID,20.439,VALID,227,VALID,0.290963,
2002-04-13, 01:05:00,VALID,917.537,VALID,0,VALID,98.8342,VALID,0,VALID,20.4522,VALID,209,VALID,0.240579,
2002-04-13, 01:06:00,VALID,917.518,VALID,0,VALID,98.8266,VALID,0.0169808,VALID,20.4487,VALID,168,VALID,0.451517,
2002-04-13, 01:07:00,VALID,917.504,VALID,0,VALID,98.81,VALID,-0.0169808,VALID,20.449,VALID,177,VALID,0.402027,
2002-04-13, 01:08:00,VALID,917.505,VALID,0,VALID,98.7859,VALID,0,VALID,20.4299,VALID,182,VALID,0.320772,
2002-04-13, 01:09:00,VALID,917.505,VALID,0,VALID,98.7706,VALID,0.0169808,VALID,20.3968,VALID,190,VALID,0.142282,
2002-04-13, 01:10:00,VALID,917.545,VALID,0,VALID,98.7693,VALID,0.0169808,VALID,20.3774,VALID,190,VALID,0.210938,
2002-04-13, 01:11:00,VALID,917.565,VALID,0,VALID,98.777,VALID,0,VALID,20.3941,VALID,189,VALID,0.13557,
2002-04-13, 01:12:00,VALID,917.585,VALID,0,VALID,98.7884,VALID,0,VALID,20.3975,VALID,188,VALID,0.122472,
2002-04-13, 01:13:00,VALID,917.597,VALID,0,VALID,98.7986,VALID,0,VALID,20.3841,VALID,188,VALID,0.0314611,
2002-04-13, 01:14:00,VALID,917.603,VALID,0,VALID,98.8304,VALID,0,VALID,20.4097,VALID,356,VALID,0.569164,
2002-04-13, 01:15:00,VALID,917.594,VALID,0,VALID,98.8444,VALID,0.0169808,VALID,20.4288,VALID,14,VALID,0.516098,
2002-04-13, 01:16:00,VALID,917.589,VALID,0,VALID,98.838,VALID,0.0169808,VALID,20.4388,VALID,25,VALID,0.44109,
2002-04-13, 01:17:00,VALID,917.567,VALID,0,VALID,98.8406,VALID,0,VALID,20.4455,VALID,17,VALID,0.315717,
2002-04-13, 01:18:00,VALID,917.532,VALID,0,VALID,98.8266,VALID,0,VALID,20.4458,VALID,21,VALID,0.234835,
2002-04-13, 01:19:00,VALID,917.494,VALID,0,VALID,98.796,VALID,0,VALID,20.4162,VALID,29,VALID,0.256123,
2002-04-13, 01:20:00,VALID,917.442,VALID,0,VALID,98.791,VALID,0.0339617,VALID,20.4,VALID,56,VALID,0.432215,
2002-04-13, 01:21:00,VALID,917.412,VALID,0,VALID,98.7655,VALID,0.0169808,VALID,20.3806,VALID,93,VALID,0.778409,
2002-04-13, 01:22:00,VALID,917.37,VALID,0,VALID,98.735,VALID,0,VALID,20.3453,VALID,89,VALID,1.00992,
2002-04-13, 01:23:00,VALID,917.348,VALID,0,VALID,98.693,VALID,0,VALID,20.2966,VALID,80,VALID,1.19278,
2002-04-13, 01:24:00,VALID,917.317,VALID,0,VALID,98.7134,VALID,0.0169808,VALID,20.271,VALID,80,VALID,1.32583,
2002-04-13, 01:25:00,VALID,917.29,VALID,0,VALID,98.763,VALID,0,VALID,20.2618,VALID,77,VALID,1.2709,
2002-04-13, 01:26:00,VALID,917.258,VALID,0,VALID,98.7592,VALID,0.0169808,VALID,20.2357,VALID,73,VALID,1.28493,
2002-04-13, 01:27:00,VALID,917.225,VALID,0,VALID,98.7363,VALID,0.0169808,VALID,20.1935,VALID,69,VALID,1.28835,
2002-04-13, 01:28:00,VALID,917.202,VALID,0,VALID,98.7414,VALID,0,VALID,20.1547,VALID,60,VALID,1.3277,
2002-04-13, 01:29:00,VALID,917.161,VALID,0,VALID,98.7693,VALID,0.0339617,VALID,20.1353,VALID,54,VALID,1.22059,
2002-04-13, 01:30:00,VALID,917.141,VALID,0,VALID,98.7604,VALID,0.0169808,VALID,20.1391,VALID,40,VALID,1.25299,
2002-04-13, 01:31:00,VALID,917.122,VALID,0,VALID,98.777,VALID,0.0169808,VALID,20.1194,VALID,38,VALID,1.01415,
2002-04-13, 01:32:00,VALID,917.086,VALID,0,VALID,98.7986,VALID,0,VALID,20.1167,VALID,54,VALID,0.838006,
2002-04-13, 01:33:00,VALID,917.072,VALID,0,VALID,98.7973,VALID,0,VALID,20.0973,VALID,58,VALID,0.518842,
2002-04-13, 01:34:00,VALID,917.047,VALID,0,VALID,98.8075,VALID,0,VALID,20.0904,VALID,56,VALID,0.403294,
2002-04-13, 01:35:00,VALID,917.024,VALID,0,VALID,98.791,VALID,0,VALID,20.0809,VALID,88,VALID,0.449449,
2002-04-13, 01:36:00,VALID,916.994,VALID,0,VALID,98.7808,VALID,0,VALID,20.0613,VALID,105,VALID,0.741039,
2002-04-13, 01:37:00,VALID,917.01,VALID,0,VALID,98.7604,VALID,0,VALID,20.0424,VALID,120,VALID,0.535051,
2002-04-13, 01:38:00,VALID,917.013,VALID,0,VALID,98.7426,VALID,0.0339617,VALID,20.0098,VALID,120,VALID,0.503906,
2002-04-13, 01:39:00,VALID,917.019,VALID,0,VALID,98.7655,VALID,0.0339617,VALID,19.9905,VALID,128,VALID,0.493371,
2002-04-13, 01:40:00,VALID,917.008,VALID,0,VALID,98.796,VALID,0,VALID,19.9872,VALID,126,VALID,0.838894,
2002-04-13, 01:41:00,VALID,916.984,VALID,0,VALID,98.8291,VALID,-0.0169808,VALID,19.9939,VALID,131,VALID,0.84398,
2002-04-13, 01:42:00,VALID,916.954,VALID,0,VALID,98.8444,VALID,0,VALID,19.9962,VALID,142,VALID,0.84375,
2002-04-13, 01:43:00,VALID,916.912,VALID,0,VALID,98.8533,VALID,0,VALID,20.0163,VALID,148,VALID,0.513936,
2002-04-13, 01:44:00,VALID,916.879,VALID,0,VALID,98.8355,VALID,0.0169808,VALID,20.0327,VALID,128,VALID,0.163603,
2002-04-13, 01:45:00,VALID,916.847,VALID,0,VALID,98.8266,VALID,0,VALID,20.0163,VALID,127,VALID,0.112689,
2002-04-13, 01:46:00,VALID,916.822,VALID,0,VALID,98.8139,VALID,-0.0169808,VALID,20.023,VALID,77,VALID,0.295608,
2002-04-13, 01:47:00,VALID,916.792,VALID,0,VALID,98.8011,VALID,0,VALID,20.0101,VALID,75,VALID,0.37454,
2002-04-13, 01:48:00,VALID,916.797,VALID,0,VALID,98.7795,VALID,-0.0169808,VALID,20.0002,VALID,93,VALID,0.197151,
2002-04-13, 01:49:00,VALID,916.798,VALID,0,VALID,98.7744,VALID,0.0339617,VALID,20.0136,VALID,93,VALID,0.0867821,
2002-04-13, 01:50:00,VALID,916.812,VALID,0,VALID,98.791,VALID,0.0339617,VALID,20.0168,VALID,114,VALID,0.390625,
2002-04-13, 01:51:00,VALID,916.852,VALID,0,VALID,98.8088,VALID,-0.0169808,VALID,20.0295,VALID,122,VALID,0.794508,
2002-04-13, 01:52:00,VALID,916.886,VALID,0,VALID,98.8075,VALID,0,VALID,20.062,VALID,98,VALID,0.693412,
2002-04-13, 01:53:00,VALID,916.924,VALID,0,VALID,98.6524,VALID,0,VALID,20.0193,VALID,30,VALID,1.43267,
2002-04-13, 01:54:00,VALID,916.972,VALID,0,VALID,98.5099,VALID,0,VALID,19.9813,VALID,38,VALID,1.20818,
2002-04-13, 01:55:00,VALID,916.978,VALID,0,VALID,98.5201,VALID,0.0169808,VALID,19.9843,VALID,48,VALID,0.980152,
2002-04-13, 01:56:00,VALID,916.989,VALID,0,VALID,98.4959,VALID,0,VALID,19.9845,VALID,71,VALID,1.20313,
2002-04-13, 01:57:00,VALID,916.984,VALID,0,VALID,98.5227,VALID,0,VALID,20.0039,VALID,64,VALID,1.20407,
2002-04-13, 01:58:00,VALID,916.991,VALID,0,VALID,98.515,VALID,-0.0339617,VALID,20.0295,VALID,81,VALID,1.13133,
2002-04-13, 01:59:00,VALID,916.97,VALID,0,VALID,98.4743,VALID,0,VALID,20.0618,VALID,94,VALID,1.1443,
2002-04-13, 02:00:00,VALID,916.951,VALID,0,VALID,98.4184,VALID,-0.0169808,VALID,20.0814,VALID,109,VALID,1.06939,
2002-04-13, 02:01:01,VALID,916.93,VALID,0,VALID,98.3713,VALID,0,VALID,20.117,VALID,124,VALID,1.07918,
2002-04-13, 02:02:01,VALID,916.916,VALID,0,VALID,98.2315,VALID,0,VALID,20.1264,VALID,133,VALID,1.13971,
2002-04-13, 02:03:01,VALID,916.903,VALID,0,VALID,98.1679,VALID,0,VALID,20.149,VALID,130,VALID,1.04119,
2002-04-13, 02:04:00,VALID,916.879,VALID,0,VALID,98.0814,VALID,0,VALID,20.1684,VALID,127,VALID,1.13197,
2002-04-13, 02:05:00,VALID,916.868,VALID,0,VALID,97.9568,VALID,0,VALID,20.187,VALID,95,VALID,0.88511,
2002-04-13, 02:06:00,VALID,916.862,VALID,0,VALID,97.7686,VALID,0,VALID,20.2231,VALID,84,VALID,0.450597,
2002-04-13, 02:07:00,VALID,916.846,VALID,0,VALID,97.6491,VALID,0,VALID,20.2392,VALID,134,VALID,0.733953,
2002-04-13, 02:08:00,VALID,916.853,VALID,0,VALID,97.5295,VALID,0,VALID,20.2718,VALID,130,VALID,0.90671,
2002-04-13, 02:09:00,VALID,916.862,VALID,0,VALID,97.3032,VALID,0.0169808,VALID,20.3133,VALID,130,VALID,0.95857,
2002-04-13, 02:10:00,VALID,916.878,VALID,0,VALID,96.9967,VALID,0,VALID,20.3523,VALID,129,VALID,1.14421,
2002-04-13, 02:11:00,VALID,916.895,VALID,0,VALID,96.7221,VALID,0,VALID,20.3916,VALID,145,VALID,1.05905,
2002-04-13, 02:12:00,VALID,916.915,VALID,0,VALID,96.4703,VALID,0.0169808,VALID,20.4301,VALID,150,VALID,0.737362,
2002-04-13, 02:13:01,VALID,916.951,VALID,0,VALID,96.2338,VALID,0,VALID,20.4395,VALID,149,VALID,0.800042,
2002-04-13, 02:14:01,VALID,916.958,VALID,0,VALID,96.1333,VALID,0,VALID,20.4333,VALID,151,VALID,0.711857,
2002-04-13, 02:15:01,VALID,916.954,VALID,0,VALID,96.1053,VALID,0,VALID,20.4336,VALID,130,VALID,0.869555,
2002-04-13, 02:16:00,VALID,916.926,VALID,0,VALID,96.1384,VALID,0,VALID,20.4107,VALID,153,VALID,1.03695,
2002-04-13, 02:17:00,VALID,916.905,VALID,0,VALID,96.2414,VALID,0,VALID,20.3846,VALID,149,VALID,1.50023,
2002-04-13, 02:18:00,VALID,916.893,VALID,0,VALID,96.3673,VALID,0,VALID,20.3682,VALID,152,VALID,1.47472,
2002-04-13, 02:19:00,VALID,916.863,VALID,0,VALID,96.4627,VALID,0,VALID,20.3655,VALID,159,VALID,1.36212,
2002-04-13, 02:20:00,VALID,916.855,VALID,0,VALID,96.4894,VALID,0.0169808,VALID,20.3583,VALID,147,VALID,1.54228,
2002-04-13, 02:21:00,VALID,916.862,VALID,0,VALID,96.4843,VALID,0.0169808,VALID,20.3747,VALID,125,VALID,1.20904,
2002-04-13, 02:22:00,VALID,916.87,VALID,0,VALID,96.3953,VALID,0,VALID,20.407,VALID,118,VALID,1.07369,
2002-04-13, 02:23:00,VALID,916.852,VALID,0,VALID,96.2948,VALID,0.0169808,VALID,20.4296,VALID,135,VALID,0.386029,
2002-04-13, 02:24:00,VALID,916.829,VALID,0,VALID,96.1562,VALID,0,VALID,20.4821,VALID,95,VALID,0.870864,
2002-04-13, 02:25:01,VALID,916.825,VALID,0,VALID,95.9388,VALID,0,VALID,20.5176,VALID,107,VALID,0.996833,
2002-04-13, 02:26:01,VALID,916.816,VALID,0,VALID,95.687,VALID,0,VALID,20.5464,VALID,106,VALID,1.21645,
2002-04-13, 02:27:01,VALID,916.825,VALID,0,VALID,95.4899,VALID,-0.0169808,VALID,20.572,VALID,121,VALID,1.26444,
2002-04-13, 02:28:00,VALID,916.84,VALID,0,VALID,95.2267,VALID,0,VALID,20.6304,VALID,125,VALID,1.3921,
2002-04-13, 02:29:00,VALID,916.852,VALID,0,VALID,94.8935,VALID,-0.0169808,VALID,20.6754,VALID,105,VALID,1.11834,
2002-04-13, 02:30:00,VALID,916.893,VALID,0,VALID,94.5629,VALID,0,VALID,20.711,VALID,101,VALID,1.47495,
2002-04-13, 02:31:00,VALID,916.879,VALID,0,VALID,94.3836,VALID,-0.0169808,VALID,20.74,VALID,108,VALID,1.24831,
2002-04-13, 02:32:00,VALID,916.861,VALID,0,VALID,94.1725,VALID,-0.0169808,VALID,20.753,VALID,112,VALID,1.37845,
2002-04-13, 02:33:00,VALID,916.842,VALID,0,VALID,94.0034,VALID,0,VALID,20.7858,VALID,104,VALID,0.965672,
2002-04-13, 02:34:00,VALID,916.848,VALID,0,VALID,93.8966,VALID,0,VALID,20.7955,VALID,105,VALID,1.36592,
2002-04-13, 02:35:00,VALID,916.825,VALID,0,VALID,93.8724,VALID,0.0169808,VALID,20.8114,VALID,129,VALID,1.18199,
2002-04-13, 02:36:00,VALID,916.806,VALID,0,VALID,93.9169,VALID,0.0169808,VALID,20.785,VALID,129,VALID,1.26333,
2002-04-13, 02:37:01,VALID,916.798,VALID,0,VALID,94.0606,VALID,0.0169808,VALID,20.7788,VALID,125,VALID,0.724029,
2002-04-13, 02:38:01,VALID,916.805,VALID,0,VALID,94.2323,VALID,0,VALID,20.7433,VALID,136,VALID,1.27413,
2002-04-13, 02:39:01,VALID,916.807,VALID,0,VALID,94.3798,VALID,0,VALID,20.7177,VALID,135,VALID,1.39796,
2002-04-13, 02:40:00,VALID,916.815,VALID,0,VALID,94.381,VALID,0,VALID,20.6983,VALID,140,VALID,1.83868,
2002-04-13, 02:41:00,VALID,916.775,VALID,0,VALID,94.3251,VALID,0.0169808,VALID,20.6846,VALID,135,VALID,1.2222,
2002-04-13, 02:42:00,VALID,916.722,VALID,0,VALID,94.2755,VALID,0.0169808,VALID,20.6749,VALID,148,VALID,1.20542,
2002-04-13, 02:43:00,VALID,916.667,VALID,0,VALID,94.2361,VALID,0.0169808,VALID,20.6709,VALID,129,VALID,0.961149,
2002-04-13, 02:44:00,VALID,916.624,VALID,0,VALID,94.1941,VALID,0,VALID,20.6846,VALID,118,VALID,1.13488,
2002-04-13, 02:45:00,VALID,916.599,VALID,0,VALID,94.1471,VALID,0,VALID,20.6717,VALID,111,VALID,1.31889,
2002-04-13, 02:46:00,VALID,916.575,VALID,0,VALID,94.0263,VALID,0,VALID,20.6682,VALID,119,VALID,1.34143,
2002-04-13, 02:47:00,VALID,916.545,VALID,0,VALID,93.8559,VALID,-0.0169808,VALID,20.6946,VALID,107,VALID,1.32698,
2002-04-13, 02:48:00,VALID,916.542,VALID,0,VALID,93.7363,VALID,-0.0339617,VALID,20.6816,VALID,119,VALID,1.13304,
2002-04-13, 02:49:01,VALID,916.508,VALID,0,VALID,93.5583,VALID,0.0169808,VALID,20.6779,VALID,95,VALID,0.577914,
2002-04-13, 02:50:01,VALID,916.495,VALID,0,VALID,93.3854,VALID,0,VALID,20.6846,VALID,89,VALID,1.28837,
2002-04-13, 02:51:01,VALID,916.475,VALID,0,VALID,93.2938,VALID,-0.0169808,VALID,20.6811,VALID,105,VALID,1.10985,
2002-04-13, 02:52:00,VALID,916.446,VALID,0,VALID,93.2836,VALID,0,VALID,20.6819,VALID,111,VALID,1.15731,
2002-04-13, 02:53:00,VALID,916.412,VALID,0,VALID,93.1768,VALID,0,VALID,20.6717,VALID,132,VALID,1.29963,
2002-04-13, 02:54:00,VALID,916.398,VALID,0,VALID,93.0738,VALID,-0.0339617,VALID,20.6752,VALID,133,VALID,2.26034,
2002-04-13, 02:55:00,VALID,916.377,VALID,0,VALID,92.9988,VALID,-0.0169808,VALID,20.6846,VALID,107,VALID,1.56588,
2002-04-13, 02:56:00,VALID,916.326,VALID,0,VALID,93.023,VALID,0,VALID,20.6843,VALID,138,VALID,0.787454,
2002-04-13, 02:57:00,VALID,916.273,VALID,0,VALID,93.0726,VALID,0,VALID,20.6781,VALID,141,VALID,0.889441,
2002-04-13, 02:58:00,VALID,916.227,VALID,0,VALID,93.1374,VALID,0,VALID,20.6652,VALID,140,VALID,1.23649,
2002-04-13, 02:59:00,VALID,916.194,VALID,0,VALID,93.1666,VALID,0.0169808,VALID,20.6364,VALID,133,VALID,0.951057,
2002-04-13, 03:00:00,VALID,916.17,VALID,0,VALID,92.8233,VALID,0,VALID,20.5809,VALID,156,VALID,1.52849,
2002-04-13, 03:01:01,VALID,916.123,VALID,0,VALID,92.3134,VALID,0,VALID,20.5392,VALID,152,VALID,1.63323,
2002-04-13, 03:02:01,VALID,916.089,VALID,0,VALID,91.8912,VALID,0,VALID,20.4905,VALID,128,VALID,1.39108,
2002-04-13, 03:03:01,VALID,916.068,VALID,0,VALID,91.9841,VALID,0,VALID,20.4681,VALID,147,VALID,1.43016,
2002-04-13, 03:04:00,VALID,916.054,VALID,0,VALID,91.8645,VALID,0,VALID,20.4452,VALID,145,VALID,1.6079,
2002-04-13, 03:05:00,VALID,916.046,VALID,0,VALID,92.2867,VALID,0,VALID,20.4129,VALID,117,VALID,1.76563,
2002-04-13, 03:06:00,VALID,916.055,VALID,0,VALID,92.7915,VALID,0,VALID,20.3871,VALID,136,VALID,1.34122,
2002-04-13, 03:07:00,VALID,916.037,VALID,0,VALID,93.2048,VALID,0,VALID,20.3682,VALID,144,VALID,1.48585,
2002-04-13, 03:08:00,VALID,916.014,VALID,0,VALID,93.1666,VALID,0,VALID,20.3225,VALID,131,VALID,1.41751,
2002-04-13, 03:09:00,VALID,915.998,VALID,0,VALID,93.0242,VALID,0.0339617,VALID,20.2807,VALID,112,VALID,1.41643,
2002-04-13, 03:10:00,VALID,915.982,VALID,0,VALID,92.8144,VALID,0,VALID,20.2519,VALID,131,VALID,1.31672,
2002-04-13, 03:11:00,VALID,915.965,VALID,0,VALID,92.5665,VALID,0,VALID,20.2129,VALID,114,VALID,1.55101,
2002-04-13, 03:12:00,VALID,915.942,VALID,0,VALID,92.2892,VALID,0,VALID,20.197,VALID,130,VALID,1.11627,
2002-04-13, 03:13:01,VALID,915.931,VALID,0,VALID,92.2981,VALID,0,VALID,20.1935,VALID,137,VALID,1.60093,
2002-04-13, 03:14:01,VALID,915.892,VALID,0,VALID,91.848,VALID,0,VALID,20.1833,VALID,137,VALID,1.8881,
2002-04-13, 03:15:01,VALID,915.853,VALID,0,VALID,91.9128,VALID,0,VALID,20.2005,VALID,146,VALID,1.73627,
2002-04-13, 03:16:00,VALID,915.825,VALID,0,VALID,92.0832,VALID,0.0169808,VALID,20.1965,VALID,146,VALID,1.83298,
2002-04-13, 03:17:01,VALID,915.789,VALID,0,VALID,92.213,VALID,0,VALID,20.2064,VALID,143,VALID,2.43107,
2002-04-13, 03:18:01,VALID,915.778,VALID,0,VALID,91.9179,VALID,0,VALID,20.1908,VALID,150,VALID,1.95427,
2002-04-13, 03:19:01,VALID,915.739,VALID,0,VALID,91.979,VALID,0,VALID,20.1843,VALID,156,VALID,1.80912,
2002-04-13, 03:20:00,VALID,915.704,VALID,0,VALID,91.6089,VALID,0,VALID,20.152,VALID,145,VALID,1.75161,
2002-04-13, 03:21:00,VALID,915.686,VALID,0,VALID,91.8226,VALID,0,VALID,20.1421,VALID,133,VALID,1.34304,
2002-04-13, 03:22:01,VALID,915.657,VALID,0,VALID,91.9777,VALID,0.0169808,VALID,20.1264,VALID,127,VALID,1.48628,
2002-04-13, 03:23:01,VALID,915.647,VALID,0,VALID,91.8111,VALID,0,VALID,20.0844,VALID,109,VALID,1.35708,
2002-04-13, 03:24:01,VALID,915.62,VALID,0,VALID,91.9396,VALID,0,VALID,20.0419,VALID,142,VALID,1.32491,
2002-04-13, 03:25:01,VALID,915.611,VALID,0,VALID,91.89,VALID,0,VALID,20.0098,VALID,149,VALID,1.57137,
2002-04-13, 03:26:01,VALID,915.589,VALID,0,VALID,91.7882,VALID,0,VALID,19.98,VALID,144,VALID,1.35616,
2002-04-13, 03:27:01,VALID,915.581,VALID,0,VALID,91.7119,VALID,0.0339617,VALID,19.9967,VALID,155,VALID,1.80658,
2002-04-13, 03:28:01,VALID,915.569,VALID,0,VALID,91.8048,VALID,0,VALID,20.0101,VALID,164,VALID,1.35072,
2002-04-13, 03:29:01,VALID,915.567,VALID,0,VALID,92.1684,VALID,0,VALID,19.9969,VALID,162,VALID,0.829504,
2002-04-13, 03:30:01,VALID,915.539,VALID,0,VALID,92.6148,VALID,0.0169808,VALID,19.984,VALID,158,VALID,1.06319,
2002-04-13, 03:31:01,VALID,915.537,VALID,0,VALID,92.8577,VALID,0,VALID,19.9355,VALID,150,VALID,1.12289,
2002-04-13, 03:32:01,VALID,915.535,VALID,0,VALID,93.3192,VALID,-0.0169808,VALID,19.897,VALID,160,VALID,1.03056,
2002-04-13, 03:33:01,VALID,915.536,VALID,0,VALID,93.1527,VALID,0,VALID,19.8327,VALID,170,VALID,1.50426,
2002-04-13, 03:34:01,VALID,915.543,VALID,0,VALID,93.2226,VALID,0,VALID,19.7708,VALID,164,VALID,1.17546,
2002-04-13, 03:35:01,VALID,915.569,VALID,0,VALID,93.3154,VALID,0,VALID,19.7387,VALID,147,VALID,1.06227,
2002-04-13, 03:36:01,VALID,915.597,VALID,0,VALID,93.3955,VALID,0,VALID,19.7064,VALID,161,VALID,1.03194,
2002-04-13, 03:37:01,VALID,915.603,VALID,0,VALID,93.3943,VALID,0,VALID,19.6707,VALID,165,VALID,1.34122,
2002-04-13, 03:38:01,VALID,915.585,VALID,0,VALID,93.454,VALID,0,VALID,19.6324,VALID,143,VALID,1.10409,